E23XBQ-1 Weather Reports


Display with metric or nautical units.
time (UTC)temp
F
wind
direction
speed
MPH
gust
MPH
rain 1hr
in
rain 24hr
in
rain mn
in
humidity
%
barometer
mb
20260905193443 78 0 0.0 0.0 0.00 0.00 0.00 84 971.0
20260905192419 77 0 0.0 0.0 0.00 0.00 0.00 86 971.0
20260905191354 77 0 0.0 0.0 0.00 0.00 0.00 87 971.0
20260905190330 77 0 0.0 0.0 0.00 0.00 0.00 86 971.0
20260905185306 78 0 0.0 0.0 0.00 0.00 0.00 84 971.0
20260905184242 78 0 0.0 0.0 0.00 0.00 0.00 86 971.0
20260905183217 78 0 0.0 0.0 0.00 0.00 0.00 85 971.0
20260905182153 78 0 0.0 0.0 0.00 0.00 0.00 81 971.0
20260905181129 78 0 0.0 0.0 0.00 0.00 0.00 80 971.0
20260905180104 77 0 0.0 0.0 0.00 0.00 0.00 86 972.0
20260905175040 77 0 0.0 0.0 0.00 0.00 0.00 84 972.0
20260905174016 77 0 0.0 0.0 0.00 0.00 0.00 85 972.0
20260905172951 78 0 0.0 0.0 0.00 0.00 0.00 85 972.0
20260905171927 78 0 0.0 0.0 0.00 0.00 0.00 86 972.0
20260905170903 78 0 0.0 0.0 0.00 0.00 0.00 85 972.0
20260905165839 78 0 0.0 0.0 0.00 0.00 0.00 85 972.0
20260905164814 78 0 0.0 0.0 0.00 0.00 0.00 86 972.0
20260905163750 78 0 0.0 0.0 0.00 0.00 0.00 86 972.0
20260905162728 78 0 0.0 0.0 0.00 0.00 0.00 86 972.0
20260905161702 78 0 0.0 0.0 0.00 0.00 0.00 86 972.0
20260905160637 78 0 0.0 0.0 0.00 0.00 0.00 86 972.0
20260905155613 79 0 0.0 0.0 0.00 0.00 0.00 85 972.0
20260905154549 79 0 0.0 0.0 0.00 0.00 0.00 85 972.0
20260905153525 79 0 0.0 0.0 0.00 0.00 0.00 85 972.0
20260905152501 79 0 0.0 0.0 0.00 0.00 0.00 86 972.0
20260905151436 79 0 0.0 0.0 0.00 0.00 0.00 85 972.0
20260905150412 79 0 0.0 0.0 0.00 0.00 0.00 85 972.0
20260905145340 79 0 0.0 0.0 0.00 0.00 0.00 85 972.0
20260905144310 79 0 0.0 0.0 0.00 0.00 0.00 83 972.0
20260905143245 79 0 0.0 0.0 0.00 0.00 0.00 84 972.0
20260905142221 79 0 0.0 0.0 0.00 0.00 0.00 83 972.0
20260905141157 79 0 0.0 0.0 0.00 0.00 0.00 82 971.0
20260905140133 79 0 0.0 0.0 0.00 0.00 0.00 82 971.0
20260905135108 80 0 0.0 0.0 0.00 0.00 0.00 83 971.0
20260905134044 80 0 0.0 0.0 0.00 0.00 0.00 83 971.0
20260905133020 80 0 0.0 0.0 0.00 0.00 0.00 83 971.0
20260905131956 80 0 0.0 0.0 0.00 0.00 0.00 83 971.0
20260905130928 80 0 0.0 0.0 0.00 0.00 0.00 84 971.0
20260905125854 80 0 0.0 0.0 0.00 0.00 0.00 84 971.0
20260905124830 81 0 0.0 0.0 0.00 0.00 0.00 84 971.0
20260905123806 81 0 0.0 0.0 0.00 0.00 0.00 83 971.0
20260905122741 81 0 0.0 0.0 0.00 0.00 0.00 83 971.0
20260905121716 82 0 0.0 0.0 0.00 0.00 0.00 83 970.0
20260905120652 82 0 0.0 0.0 0.00 0.00 0.00 82 970.0
20260905115628 82 0 0.0 0.0 0.00 0.00 0.00 81 970.0
20260905114603 83 0 0.0 0.0 0.00 0.00 0.00 78 970.0
20260905113538 83 0 0.0 0.0 0.00 0.00 0.00 80 970.0
20260905112513 84 0 0.0 0.0 0.00 0.00 0.00 79 970.0
20260905110841 85 0 0.0 0.0 0.00 0.00 0.00 75 970.0
20260905104908 85 0 0.0 0.0 0.00 0.00 0.00 71 969.0
20260905102933 86 0 0.0 0.0 0.00 0.00 0.00 73 969.0
20260905101000 88 0 0.0 0.0 0.00 0.00 0.00 67 969.0
20260905093054 92 0 0.0 0.0 0.00 0.00 0.00 59 969.0
20260905091120 93 0 0.0 0.0 0.00 0.00 0.00 55 969.0
20260905085148 93 0 0.0 0.0 0.00 0.00 0.00 55 969.0
20260905083214 94 0 0.0 0.0 0.00 0.00 0.00 53 969.0
20260905075308 89 0 0.0 0.0 0.00 0.00 0.00 59 970.0
20260905073323 88 0 0.0 0.0 0.00 0.00 0.00 64 970.0
20260905071401 87 0 0.0 0.0 0.00 0.00 0.00 66 970.0
20260905070207 86 0 0.0 0.0 0.00 0.00 0.00 69 971.0
20260905065142 86 0 0.0 0.0 0.00 0.00 0.00 70 971.0
20260905064118 86 0 0.0 0.0 0.00 0.00 0.00 68 971.0
20260905063050 86 0 0.0 0.0 0.00 0.00 0.00 71 971.0
20260905062040 86 0 0.0 0.0 0.00 0.00 0.00 69 971.0
20260905062026 86 0 0.0 0.0 0.00 0.00 0.00 69 971.0
20260905061001 86 0 0.0 0.0 0.00 0.00 0.00 67 972.0
20260905055937 86 0 0.0 0.0 0.00 0.00 0.00 70 972.0
20260905054913 86 0 0.0 0.0 0.00 0.00 0.00 68 972.0
20260905053849 86 0 0.0 0.0 0.00 0.00 0.00 67 972.0
20260905052825 86 0 0.0 0.0 0.00 0.00 0.00 67 972.0
20260905051759 86 0 0.0 0.0 0.00 0.00 0.00 66 972.0
20260905051646 86 0 0.0 0.0 0.00 0.00 0.00 66 973.0
20260905050621 86 0 0.0 0.0 0.00 0.00 0.00 67 973.0
20260905045557 86 0 0.0 0.0 0.00 0.00 0.00 68 973.0
20260905044533 85 0 0.0 0.0 0.00 0.00 0.00 70 973.0
20260905043509 85 0 0.0 0.0 0.00 0.00 0.00 69 973.0
20260905042445 85 0 0.0 0.0 0.00 0.00 0.00 71 973.0
20260905041420 85 0 0.0 0.0 0.00 0.00 0.00 67 973.0
20260905040356 86 0 0.0 0.0 0.00 0.00 0.00 65 973.0
20260905035332 86 0 0.0 0.0 0.00 0.00 0.00 66 973.0
20260905034307 87 0 0.0 0.0 0.00 0.00 0.00 66 973.0
20260905033243 87 0 0.0 0.0 0.00 0.00 0.00 64 974.0
20260905032219 88 0 0.0 0.0 0.00 0.00 0.00 64 974.0
20260905031154 89 0 0.0 0.0 0.00 0.00 0.00 61 974.0
20260905030130 87 0 0.0 0.0 0.00 0.00 0.00 65 974.0
20260905025106 86 0 0.0 0.0 0.00 0.00 0.00 66 974.0
20260905024042 86 0 0.0 0.0 0.00 0.00 0.00 67 974.0
20260905023018 86 0 0.0 0.0 0.00 0.00 0.00 66 974.0
20260905021953 84 0 0.0 0.0 0.00 0.00 0.00 70 974.0
20260905020929 83 0 0.0 0.0 0.00 0.00 0.00 72 974.0
20260905015905 83 0 0.0 0.0 0.00 0.00 0.00 74 974.0
20260905014840 82 0 0.0 0.0 0.00 0.00 0.00 73 974.0
20260905013816 81 0 0.0 0.0 0.00 0.00 0.00 76 974.0
20260905012752 80 0 0.0 0.0 0.00 0.00 0.00 76 974.0
20260905011728 80 0 0.0 0.0 0.00 0.00 0.00 78 973.0
20260905010703 80 0 0.0 0.0 0.00 0.00 0.00 78 973.0
20260905005627 79 0 0.0 0.0 0.00 0.00 0.00 78 973.0
20260905004556 79 0 0.0 0.0 0.00 0.00 0.00 77 973.0
20260905003531 79 0 0.0 0.0 0.00 0.00 0.00 80 973.0
20260905002507 78 0 0.0 0.0 0.00 0.00 0.00 82 973.0
20260905001443 77 0 0.0 0.0 0.00 0.00 0.00 83 973.0
20260905000418 77 0 0.0 0.0 0.00 0.00 0.00 84 972.0
20260904235354 76 0 0.0 0.0 0.00 0.00 0.00 85 972.0
20260904234330 76 0 0.0 0.0 0.00 0.00 0.00 85 972.0
20260904233306 76 0 0.0 0.0 0.00 0.00 0.00 86 972.0
20260904232241 76 0 0.0 0.0 0.00 0.00 0.00 86 972.0
20260904231217 76 0 0.0 0.0 0.00 0.00 0.00 85 972.0
20260904230153 76 0 0.0 0.0 0.00 0.00 0.00 87 972.0
20260904225128 76 0 0.0 0.0 0.00 0.00 0.00 85 972.0
20260904224104 76 0 0.0 0.0 0.00 0.00 0.00 86 972.0
20260904223040 76 0 0.0 0.0 0.00 0.00 0.00 86 972.0
20260904222016 76 0 0.0 0.0 0.00 0.00 0.00 87 971.0
20260904220951 76 0 0.0 0.0 0.00 0.00 0.00 86 971.0
20260904215927 77 0 0.0 0.0 0.00 0.00 0.00 85 971.0
20260904214903 77 0 0.0 0.0 0.00 0.00 0.00 85 971.0
20260904213839 77 0 0.0 0.0 0.00 0.00 0.00 86 971.0
20260904212814 77 0 0.0 0.0 0.00 0.00 0.00 85 971.0
20260904211750 77 0 0.0 0.0 0.00 0.00 0.00 83 971.0
20260904210726 77 0 0.0 0.0 0.00 0.00 0.00 84 971.0
20260904205702 77 0 0.0 0.0 0.00 0.00 0.00 85 971.0
20260904204637 77 0 0.0 0.0 0.00 0.00 0.00 85 971.0
20260904203613 77 0 0.0 0.0 0.00 0.00 0.00 81 971.0
20260904202549 77 0 0.0 0.0 0.00 0.00 0.00 84 971.0
20260904201525 78 0 0.0 0.0 0.00 0.00 0.00 81 971.0
20260904200500 78 0 0.0 0.0 0.00 0.00 0.00 82 971.0
20260904195436 78 0 0.0 0.0 0.00 0.00 0.00 82 971.0
20260904194412 78 0 0.0 0.0 0.00 0.00 0.00 78 971.0